Погода в Серове

Погода в Серове : погода сейчас, прогноз погоды и архив. Всё, что Вы хотите узнать о погоде в Серове!

Поиск расширенной информации на нашем сайте:

Другие новости

Новости СМИ2

Главная страница сайта

Новости сайта

03.07.2017

Напоминаем, что на нашем специализированном сайте Метеоцентр.Азия вы можете получить высокодетализированные автоматические прогнозы погоды по пунктам России, СНГ и мира в авиационном формате (включающие направление и скорость ветра, видимость, явления погоды, количество и форму облачности, нижнюю и верхнюю границу облачности).


Погода в Серове - сегодня

Время (UTC), дата Ветер
(°,м/с) 
Видим.   Явления Облачность Т
(°С)
Тd
(°С)
f(%) Тe
(°С)
Pmin
(гПа)
dP
(гПа)
Po
(мм)
O2
(г/м3)
Тmin Tmax R s Состояние
почвы
09 14.12.17 170 (Ю) 20000 м    10/10 600 м 
[Sc]
-3.6 -5.9 84 -3  1025.1  0.7  757  310           
12 14.12.17 210 (ЮЗ) 10 км    10/10 600 м 
[Sc]
-3 -6 80 -4  1026.6  1.5  758  309           
15 14.12.17 200 (Ю) 2000 м  слаб. снег  10/10 300 м 
[Frnb]
-3.7 -6.4 81 -6  1027.1  0.5  758  310    -2.7  0.0     
18 14.12.17 200 (Ю) 2000 м  слаб. снег  10/10 300 м 
[Frnb]
-3.6 -7.2 76 -7  1026.7  -0.4  758  310           
21 14.12.17 210 (ЮЗ) 10 км    8/8 600 м 
[Sc]
-3.2 -6.7 77 -4  1026.3  -0.4  758  310           
00 15.12.17 200 (Ю) 10 км    8/8 600 м 
[Sc]
-1.9 -5.2 78 -4  1026.2  758  308           
03 15.12.17 200 (Ю) 10 км    9/9 600 м 
[Sc]
-0.4 -4.5 74 -2  1027.2  1.1  759  307  -3.9    0.0  равномерный
сухой снег
100% 
06 15.12.17 190 (Ю) 20000 м    8/8 600 м 
[Sc]
-0.4 -5.1 70 -2  1028.3  759  307           
09 15.12.17 210 (ЮЗ) 20000 м    8/8 600 м 
[Sc]
-0.3 -6.7 62 -3  1028.1  -0.2  759  307           
12 15.12.17 200 (Ю) 10 км    9/9 600 м 
[Sc]
-1.3 -7.8 61 -4  1028.7  0.5  760  308           
15 15.12.17 190 (Ю) 10 км    8/8 600 м 
[Sc]
-2.5 -8.7 62 -5  1029  0.2  760  310    -0.2       
18 15.12.17 200 (Ю) 10 км    10/10 600 м 
[Sc]
-2.7 -9.8 58 -6  1028.9  -0.2  760  310           
21 15.12.17 210 (ЮЗ) 10 км    10/10 600 м 
[Sc]
-3.1 -9.9 59 -4  1029.6  0.7  760  311           
00 16.12.17 210 (ЮЗ) 10 км    10/10 600 м 
[Sc]
-3.4 -9.5 63 -6  1030.3  0.6  761  311           
03 16.12.17 220 (ЮЗ) 10 км    10/10 600 м 
[Sc]
-3.5 -8.5 68 -5  1031  0.7  761  312  -3.8      равномерный
сухой снег
100% 
06 16.12.17 220 (ЮЗ) 20000 м    9/9 600 м средняя 
[Sc|Ac trans]
-3.1 -7.7 70 -3  1031.5  0.5  762  311           
09 16.12.17 200 (Ю) 20000 м    9/8 600 м средняя 
[Sc|Ac trans]
-1.8 -9.8 54 -3  1031.9  0.5  762  310           
12 16.12.17 190 (Ю) 10 км    8/4 600 м средняя 
[Sc|Ac trans]
-4.7 -11.8 58 -6  1033  0.9  763  314           
15 16.12.17 190 (Ю) 10 км    9/5 600 м средняя 
[Sc|Ac trans]
-5 -12 58 -6  1033.9  0.9  763  314    -1.8       
18 16.12.17 180 (Ю) 10 км    4/0 верхняя 
[Ci fib]
-6.9 -13.1 61 -7  1033.5  -0.5  763  317           
21 16.12.17 160 (Ю) 10 км    ясно 
-8.4 -13.4 67 -8  1033.4  0.1  763  318           
00 17.12.17 190 (Ю) 10 км    ясно 
-8.8 -15.5 58 -10  1033.2  -0.3  763  319           
03 17.12.17 140 (ЮВ) 10 км    ясно 
-8.5 -14.9 60 -8  1033.4  0.2  763  319  -8.9      равномерный
сухой снег
100% 
06 17.12.17 110 (В) 20000 м    6/3 600 м верхняя 
[Sc|Ci fib]
-8.3 -14.1 63 -8  1033.5  -0.1  763  318           
09 17.12.17 170 (Ю) 20000 м    5/0 верхняя 
[Ci fib]
-3.3 -12.8 48 -5  1032.6  -0.5  762  312           
Время (UTC), дата Ветер
(°,м/с) 
Видим.   Явления Облачность Т
(°С)
Тd
(°С)
f(%) Тe
(°С)
Pmin
(гПа)
dP
(гПа)
Po
(мм)
O2
(г/м3)
Тmin Tmax R s Состояние
почвы

Для получения пояснительной информации подведите курсор к названию столбца.

ПОГОДА в Серове - архив

Всё, что Вы хотите узнать о погоде в Серове - удобно и подробно!

Выберите нужную дату (начиная с 1 января 2015* года) и нажмите кнопку "Найти".
Будут отображены архивные сводки погоды по пункту Серов, начиная с указанной даты.


Отображать данные в формате CSV (для использования в таблицах Excel)


Внимание! Наш архив погоды предназначен исключительно для личного некоммерческого использования в познавательных целях. Если Вам необходимы официальные справки о состоянии погоды (для производственных, юридических, коммерческих и т.п. целей), обращайтесь в органы Росгидромета.

*Примечание: данная дата относится к архиву по метеостанциям СССР (Россия, СНГ, Балтия).
Архив по метеостанциям Зарубежной Европы и Азии (кроме Китая) хранится 10 дней, по другим регионам земного шара (Китай, Африка, Америка, Австралия, Океания) - 1 день.

Серов - район местоположения метеостанции


Название, широта, долгота, высота метеостанции:
Серов 59.6°ш. 60.5°д. 130 м над ур. моря [Российская Федерация]

Дополнительная информация

В oтличие oт бoльшинства пoгoдных сайтoв мы публикуем пoдрoбную метеoинфoрмацию в детальнoм прoфессиoнальнoм фoрмате.

Характеристики температуры и влажнoсти вoздуха измеряются на высoте 2 м в тени вдали oт зданий и деревьев.
Скoрoсть ветра измеряется на высoте 10 м (на урoвне рoста челoвека скoрoсть ветра ниже в 1.5-2 раза). Если метеoстанция нахoдится в гoрoде или в лесу, тo скoрoсть ветра занижена на 2-4 м/с пo сравнению с oткрытым местoм. Скoрoсть ветра над акватoриями крупных рек и oзёр, а также на вершинах хoлмoв на 2-5 м/с выше, чем в oбычных услoвиях.
Атмoсфернoе давление в разных тoчках местнoсти мoжет значительнo oтличаться oт давления на метеoстанции, в зависимoсти oт услoвий рельефа (при пoдъёме на 10 м давление пoнижается примернo на 1 мм рт.ст.).